Location: Chiroubles
(46.1812°N, 4.6660°E)
Time: 02:49:54
(UTC+00:00)

Tiros 1 - Pass Details

Date: 29 November 2020
Orbit: 630 x 663 km, 48.4° (Epoch: 16 January)

Event Time Altitude Azimuth Distance (km) Brightness Sun altitude
Rises 18:33:57 0° 283° (WNW) 2,990 11.7 -26.3°
Reaches altitude 10° 18:36:19 10° 285° (WNW) 2,073 10.6 -26.7°
Enters shadow 18:40:15 58° 305° (NW) 763 7.6 -27.4°
